Hourly Data Report for October 04, 2017

All times are specified in Local Standard Time (LST). Add 1 hour to adjust for Daylight Saving Time where and when it is observed.

MORDEN CDA CS
MANITOBA

49°11'15.500" N
98°05'02.200" W
297.50 m
5021849
71564
XMD

Download Data

Hourly Data (October 2017)
Hourly Data Report for October 4, 2017
Temp Definition
°C
Dew Point Temp Definition
°C
Rel Hum Definition
%
Wind Dir Definition
10's deg

Wind Spd Definition
km/h
Visibility Definition
km
Stn Press Definition
kPa
Hmdx Definition


Wind Chill Definition


Weather Definition


TIME
00:00 8.3 2.2 66 28 12   98.55     LegendNANA
01:00 8.1 1.8 64 28 15   98.59     LegendNANA
02:00 7.9 1.9 66 27 14   98.63     LegendNANA
03:00 7.8 4.2 78 27 15   98.64     LegendNANA
04:00 8.2 4.8 80 28 13   98.66     LegendNANA
05:00 7.8 4.2 78 29 14   98.67     LegendNANA
06:00 7.4 3.6 77 27 19   98.71     LegendNANA
07:00 6.8 3.0 76 27 20   98.75     LegendNANA
08:00 7.3 2.9 74 26 26   98.75     LegendNANA
09:00 7.8 2.7 70 27 25   98.79     LegendNANA
10:00 8.9 2.6 65 28 24   98.78     LegendNANA
11:00 9.9 3.1 63 27 22   98.76     LegendNANA
12:00 10.8 2.5 56 26 22   98.68     LegendNANA
13:00 12.0 2.5 52 26 19   98.60     LegendNANA
14:00 12.6 2.6 50 26 18   98.53     LegendNANA
15:00 12.4 3.0 52 25 23   98.46     LegendNANA
16:00 12.5 2.5 50 25 19   98.42     LegendNANA
17:00 11.6 2.8 55 25 14   98.38     LegendNANA
18:00 9.7 2.6 61 26 12   98.41     LegendNANA
19:00 8.3 2.3 66 25 7   98.40     LegendNANA
20:00 8.0 1.9 66 26 14   98.41     LegendNANA
21:00 7.5 1.5 66 26 15   98.42     LegendNANA
22:00 7.6 1.5 65 26 14   98.40     LegendNANA
23:00 7.4 1.2 65 27 15   98.38     LegendNANA

Notes on Data Quality.

Legend

  • E = Estimated
  • M = Missing
  • NA = Not Available
  • ‡ = Partner data that is not subject to review by the National Climate Archives
Date modified: